Location: Molveno
(46.1500°N, 10.9667°E)
Time: 07:49:45
(UTC+00:00)

Thor Agena Rocket - Pass Details

Date: 05 July 2020
Orbit: 759 x 808 km, 99.0° (Epoch: 05 August)

Event Time Altitude Azimuth Distance (km) Brightness Sun altitude
Rises 22:23:29 0° 12° (NNE) 3,268 7.9 -20.0°
Reaches altitude 10° 22:25:50 10° 10° (N) 2,329 7.0 -20.1°
Maximum altitude 22:30:55 70° 288° (WNW) 819 3.7 -20.3°
Enters shadow 22:33:17 32° 213° (SSW) 1,304 4.3 -20.3°
